Whidbey Island, WA
on Wednesday, January 2, 2013

Wednesday
Previous Day Next Day
Daily Summary
 ActualAverageRecord
Temperature
Mean Temperature °F °F  
Max Temperature 45°F 44°F 57°F (2012)
Min Temperature 27°F 34°F 23°F (2011)
Degree Days
Heating Degree Days 28    
Moisture
Dew Point 29°F   
Average Humidity 78    
Maximum Humidity 92    
Minimum Humidity 56    
Precipitation
Precipitation 0.00 in in in ()
Wind
Wind Speed 4 mph   
Max Wind Speed 10 mph   
Max Gust Speed mph   
Visibility 10 miles   
Events     
Averages and records for this station are not official NWS values.
Key: T is trace of precipitation, MM is missing value
Source: NWS Daily Summary
Seasonal Weather Averages
Time(PST)TemperatureDew PointHumidity Pressure Visibility Wind DirectionWind SpeedGust SpeedPrecipitationEvents Conditions
12:56 AM 30.0°F 28.0°F 92% 30.37 in 10.0 miles ESE 4.6 mph - N/A   Mostly Cloudy
1:56 AM 33.1°F 28.9°F 85% 30.36 in 10.0 miles ENE 4.6 mph - N/A   Mostly Cloudy
2:56 AM 32.0°F 28.0°F 85% 30.35 in 10.0 miles SE 3.5 mph - N/A   Mostly Cloudy
3:56 AM 33.1°F 28.9°F 85% 30.35 in 10.0 miles Calm Calm - N/A   Mostly Cloudy
4:56 AM 33.1°F 28.0°F 82% 30.33 in 10.0 miles Calm Calm - N/A   Mostly Cloudy
5:56 AM 35.1°F 30.0°F 82% 30.32 in 10.0 miles Calm Calm - N/A   Mostly Cloudy
6:56 AM 33.1°F 28.0°F 82% 30.32 in 10.0 miles Calm Calm - N/A   Mostly Cloudy
7:56 AM 30.0°F 26.1°F 85% 30.32 in 10.0 miles Calm Calm - N/A   Overcast
8:56 AM 32.0°F 28.9°F 88% 30.33 in 10.0 miles SE 3.5 mph - N/A   Mostly Cloudy
9:56 AM 37.9°F 34.0°F 86% 30.33 in 10.0 miles East 8.1 mph - N/A   Overcast
10:56 AM 39.9°F 33.1°F 77% 30.32 in 10.0 miles ESE 10.4 mph - N/A   Mostly Cloudy
11:56 AM 42.1°F 32.0°F 67% 30.29 in 10.0 miles East 9.2 mph - N/A   Mostly Cloudy
12:56 PM 44.1°F 30.0°F 58% 30.28 in 10.0 miles East 9.2 mph - N/A   Mostly Cloudy
1:56 PM 45.0°F 30.9°F 58% 30.27 in 10.0 miles ESE 6.9 mph - N/A   Mostly Cloudy
2:56 PM 45.0°F 30.0°F 56% 30.27 in 10.0 miles ESE 4.6 mph - N/A   Scattered Clouds
3:56 PM 41.0°F 28.9°F 62% 30.27 in 10.0 miles Calm Calm - N/A   Mostly Cloudy
4:56 PM 39.0°F 30.0°F 70% 30.27 in 9.0 miles Calm Calm - N/A   Partly Cloudy
5:56 PM 33.1°F 28.0°F 82% 30.26 in 10.0 miles East 5.8 mph - N/A   Partly Cloudy
6:56 PM 33.1°F 28.9°F 85% 30.25 in 10.0 miles SE 4.6 mph - N/A   Partly Cloudy
7:56 PM 33.1°F 28.9°F 85% 30.24 in 10.0 miles East 5.8 mph - N/A   Partly Cloudy
8:56 PM 34.0°F 28.0°F 79% 30.23 in 10.0 miles East 3.5 mph - N/A   Partly Cloudy
9:56 PM 32.0°F 27.0°F 82% 30.23 in 10.0 miles East 5.8 mph - N/A   Partly Cloudy
10:56 PM 34.0°F 27.0°F 75% 30.23 in 10.0 miles East 4.6 mph - N/A   Partly Cloudy
11:56 PM 27.0°F 21.9°F 81% 30.22 in 10.0 miles SE 3.5 mph - N/A   Partly Cloudy
Moon Phase
Jan. 02 Jan. 04 Jan. 11 Jan. 18 Jan. 26
Sunrise:08:01 AM (PST) Moon Rise:10:35 PM (PST)
Sunset:04:28 PM (PST) Moon Set:10:19 AM (PST)

Copyright © 2014 The Weather Underground, Inc.